User: anonymous   Login
Location: Unspecified
(0.0000°N, 0.0000°E)
Time: 16:42:15
(UTC+00:00)
Language:

MUOS 5 - Orbit

View from above orbital plane
View from above orbital plane
View from above satellite
View from above satellite

Ground track
Ground track

The orbit data is extracted from the following two-line orbital elements,

1 41622U 16041A   17018.85095288 0.00000000  00000-0  00000-0 0    02
2 41622   9.5378 320.0924 0210499 187.0283 172.6542  1.00270000    00
Epoch (UTC): 18 January 2017 20:25:22
Eccentricity: 0.0210499
inclination: 9.5378°
perigee height: 34899 km
apogee height: 36674 km
right ascension of ascending node: 320.0924°
argument of perigee: 187.0283°
revolutions per day: 1.00270000
mean anomaly at epoch: 172.6542°
orbit number at epoch: 0

The dashed part of the orbit path shows where the satellite is in the earth's shadow,  

DLR